owner,sensor,date,latitude,longitude,vertical_datum,direction_of_sea_water_velocity,sea_water_speed,upward_sea_water_velocity,qcFlag 
ADCP,ioos:station:wmo:42372:1,2015-02-01T00:09:00Z,27.7800,-90.5180,12.0,78.0,83.5,0.0,'1111122,1111122,1114422' 
ADCP,ioos:station:wmo:42372:1,2015-02-01T01:29:00Z,27.7800,-90.5180,12.0,81.0,78.5,0.0,'1111122,1111122,1114422' 
ADCP,ioos:station:wmo:42372:1,2015-02-01T02:29:00Z,27.7800,-90.5180,12.0,85.0,76.7,-99999.0,'1111122,1111122,1199999999' 
ADCP,ioos:station:wmo:42372:1,2015-02-01T03:29:00Z,27.7800,-90.5180,12.0,83.0,75.0,0.0,'1111122,1111122,1114422' 
ADCP,ioos:station:wmo:42372:1,2015-02-01T04:29:00Z,27.7800,-90.5180,11.9,81.0,74.9,-99999.0,'1111122,1111122,1199999999' 
ADCP,ioos:station:wmo:42372:1,2015-02-01T06:29:00Z,27.7800,-90.5180,11.8,77.0,80.2,-99999.0,'1111122,1111122,1199999999' 
ADCP,ioos:station:wmo:42372:1,2015-02-01T07:29:00Z,27.7800,-90.5180,11.8,73.0,82.7,-99999.0,'1111122,1111122,1199999999' 
ADCP,ioos:station:wmo:42372:1,2015-02-01T08:29:00Z,27.7800,-90.5180,11.7,71.0,82.6,-99999.0,'1111122,1111122,1199999999' 
ADCP,ioos:station:wmo:42372:1,2015-02-01T09:29:00Z,27.7800,-90.5180,11.7,74.0,81.9,-99999.0,'1111122,1111122,1199999999' 
ADCP,ioos:station:wmo:42372:1,2015-02-01T10:29:00Z,27.7800,-90.5180,11.7,66.0,93.0,-99999.0,'1111122,1111122,1199999999' 
ADCP,ioos:station:wmo:42372:1,2015-02-01T11:29:00Z,27.7800,-90.5180,11.7,68.0,98.0,-99999.0,'1111122,1111122,1199999999' 
ADCP,ioos:station:wmo:42372:1,2015-02-01T12:29:00Z,27.7800,-90.5180,11.7,71.0,100.1,-99999.0,'1111122,1111122,1199999999' 
ADCP,ioos:station:wmo:42372:1,2015-02-01T13:29:00Z,27.7800,-90.5180,11.8,74.0,94.2,0.0,'1111122,1111122,1114422' 
ADCP,ioos:station:wmo:42372:1,2015-02-01T14:29:00Z,27.7800,-90.5180,11.8,78.0,89.6,0.0,'1111122,1111122,1114422' 
ADCP,ioos:station:wmo:42372:1,2015-02-01T16:29:00Z,27.7800,-90.5180,11.8,84.0,91.0,-99999.0,'1111122,1111122,1199999999' 
ADCP,ioos:station:wmo:42372:1,2015-02-01T17:29:00Z,27.7800,-90.5180,11.9,83.0,88.2,-99999.0,'1111122,1111122,1199999999' 
ADCP,ioos:station:wmo:42372:1,2015-02-01T18:29:00Z,27.7800,-90.5180,11.9,84.0,86.0,0.0,'1111122,1111122,1114422' 
ADCP,ioos:station:wmo:42372:1,2015-02-01T19:29:00Z,27.7800,-90.5180,12.0,84.0,85.9,0.0,'1111122,1111122,1114422' 
ADCP,ioos:station:wmo:42372:1,2015-02-01T20:29:00Z,27.7800,-90.5180,12.0,83.0,83.0,-99999.0,'1111122,1111122,1199999999' 
ADCP,ioos:station:wmo:42372:1,2015-02-01T21:29:00Z,27.7800,-90.5180,12.0,82.0,79.3,-99999.0,'1111122,1111122,1199999999' 
ADCP,ioos:station:wmo:42372:1,2015-02-01T22:29:00Z,27.7800,-90.5180,12.0,81.0,76.4,-99999.0,'1111122,1111122,1199999999' 
ADCP,ioos:station:wmo:42372:1,2015-02-01T23:29:00Z,27.7800,-90.5180,12.1,84.0,68.3,-99999.0,'1111122,1111122,1199999999' 
ADCP,ioos:station:wmo:42372:1,2015-02-02T00:29:00Z,27.7800,-90.5180,12.1,84.0,63.8,-99999.0,'1111122,1111122,1199999999' 
ADCP,ioos:station:wmo:42372:1,2015-02-02T01:29:00Z,27.7800,-90.5180,12.1,86.0,57.2,-99999.0,'1111122,1111122,1199999999' 
ADCP,ioos:station:wmo:42372:1,2015-02-02T02:29:00Z,27.7800,-90.5180,12.1,87.0,55.4,-99999.0,'1111122,1111122,1199999999' 
ADCP,ioos:station:wmo:42372:1,2015-02-02T03:29:00Z,27.7800,-90.5180,12.1,87.0,53.4,0.0,'1111122,1111122,1114422' 
ADCP,ioos:station:wmo:42372:1,2015-02-02T04:29:00Z,27.7800,-90.5180,12.1,87.0,49.8,0.0,'1111122,1111122,1114422' 
ADCP,ioos:station:wmo:42372:1,2015-02-02T05:29:00Z,27.7800,-90.5180,12.1,89.0,47.0,-99999.0,'1111122,1111122,1199999999' 
ADCP,ioos:station:wmo:42372:1,2015-02-02T06:29:00Z,27.7800,-90.5180,12.1,86.0,47.9,0.0,'1111122,1111122,1114422' 
ADCP,ioos:station:wmo:42372:1,2015-02-02T07:29:00Z,27.7800,-90.5180,12.1,86.0,49.0,-99999.0,'1111122,1111122,1199999999' 
ADCP,ioos:station:wmo:42372:1,2015-02-02T08:29:00Z,27.7800,-90.5180,12.2,89.0,48.5,-99999.0,'1111122,1111122,1199999999' 
ADCP,ioos:station:wmo:42372:1,2015-02-02T09:29:00Z,27.7800,-90.5180,12.1,82.0,49.6,0.0,'1111122,1111122,1114422' 
ADCP,ioos:station:wmo:42372:1,2015-02-02T10:29:00Z,27.7800,-90.5180,12.1,85.0,48.3,0.0,'1111122,1111122,1114422' 
ADCP,ioos:station:wmo:42372:1,2015-02-02T11:29:00Z,27.7800,-90.5180,12.2,81.0,41.6,-99999.0,'1111122,1111122,1199999999' 
ADCP,ioos:station:wmo:42372:1,2015-02-02T12:29:00Z,27.7800,-90.5180,12.2,78.0,38.5,0.0,'1111122,1111122,1114422' 
ADCP,ioos:station:wmo:42372:1,2015-02-02T14:29:00Z,27.7800,-90.5180,12.2,90.0,35.8,0.0,'1111122,1111122,1114422' 
ADCP,ioos:station:wmo:42372:1,2015-02-02T15:19:00Z,27.7800,-90.5180,12.2,86.0,32.5,0.0,'1111122,1111122,1114422' 
ADCP,ioos:station:wmo:42372:1,2015-02-02T16:29:00Z,27.7800,-90.5180,12.3,81.0,32.2,0.0,'1111122,1111122,1114422' 
ADCP,ioos:station:wmo:42372:1,2015-02-02T17:29:00Z,27.7800,-90.5180,12.2,77.0,33.0,0.0,'1111122,1111122,1114422' 
ADCP,ioos:station:wmo:42372:1,2015-02-02T18:29:00Z,27.7800,-90.5180,12.2,77.0,30.6,0.0,'1111122,1111122,1114422' 
ADCP,ioos:station:wmo:42372:1,2015-02-02T19:29:00Z,27.7800,-90.5180,12.2,57.0,31.1,0.0,'1111122,1111122,1114422' 
ADCP,ioos:station:wmo:42372:1,2015-02-02T20:29:00Z,27.7800,-90.5180,12.2,50.0,35.6,-99999.0,'1111122,1111122,1199999999' 
ADCP,ioos:station:wmo:42372:1,2015-02-02T21:29:00Z,27.7800,-90.5180,12.2,49.0,42.0,-99999.0,'1111122,1111122,1199999999' 
ADCP,ioos:station:wmo:42372:1,2015-02-02T22:29:00Z,27.7800,-90.5180,12.2,48.0,43.8,0.0,'1111122,1111122,1114422' 
ADCP,ioos:station:wmo:42372:1,2015-02-02T23:29:00Z,27.7800,-90.5180,12.2,44.0,49.0,0.0,'1111122,1111122,1114422' 
ADCP,ioos:station:wmo:42372:1,2015-02-03T00:29:00Z,27.7800,-90.5180,12.2,46.0,52.7,0.0,'1111122,1111122,1114422' 
ADCP,ioos:station:wmo:42372:1,2015-02-03T01:29:00Z,27.7800,-90.5180,12.2,52.0,52.0,-99999.0,'1111122,1111122,1199999999' 
ADCP,ioos:station:wmo:42372:1,2015-02-03T02:29:00Z,27.7800,-90.5180,12.2,57.0,53.9,-99999.0,'1111122,1111122,1199999999' 
ADCP,ioos:station:wmo:42372:1,2015-02-03T04:29:00Z,27.7800,-90.5180,12.2,74.0,58.8,-99999.0,'1111122,1111122,1199999999' 
ADCP,ioos:station:wmo:42372:1,2015-02-03T05:19:00Z,27.7800,-90.5180,12.1,71.0,63.5,0.0,'1111122,1111122,1114422' 
ADCP,ioos:station:wmo:42372:1,2015-02-03T06:29:00Z,27.7800,-90.5180,12.1,77.0,64.3,-99999.0,'1111122,1111122,1199999999' 
ADCP,ioos:station:wmo:42372:1,2015-02-03T07:29:00Z,27.7800,-90.5180,11.9,82.0,68.1,0.0,'1111122,1111122,1114422' 
ADCP,ioos:station:wmo:42372:1,2015-02-03T08:29:00Z,27.7800,-90.5180,12.0,87.0,69.1,0.0,'1111122,1111122,1114422' 
ADCP,ioos:station:wmo:42372:1,2015-02-03T09:29:00Z,27.7800,-90.5180,11.9,90.0,67.9,0.0,'1111122,1111122,1114422' 
ADCP,ioos:station:wmo:42372:1,2015-02-03T10:29:00Z,27.7800,-90.5180,12.0,85.0,70.0,-99999.0,'1111122,1111122,1199999999' 
ADCP,ioos:station:wmo:42372:1,2015-02-03T12:29:00Z,27.7800,-90.5180,12.0,83.0,65.5,-99999.0,'1111122,1111122,1199999999' 
ADCP,ioos:station:wmo:42372:1,2015-02-03T13:29:00Z,27.7800,-90.5180,12.1,84.0,61.0,0.0,'1111122,1111122,1114422' 
ADCP,ioos:station:wmo:42372:1,2015-02-03T14:29:00Z,27.7800,-90.5180,12.1,86.0,52.6,0.0,'1111122,1111122,1114422' 
ADCP,ioos:station:wmo:42372:1,2015-02-03T15:19:00Z,27.7800,-90.5180,12.2,81.0,47.0,0.0,'1111122,1111122,1114422' 
ADCP,ioos:station:wmo:42372:1,2015-02-03T16:29:00Z,27.7800,-90.5180,12.2,91.0,40.0,-99999.0,'1111122,1111122,1199999999' 
ADCP,ioos:station:wmo:42372:1,2015-02-03T17:29:00Z,27.7800,-90.5180,12.2,90.0,34.3,-99999.0,'1111122,1111122,1199999999' 
ADCP,ioos:station:wmo:42372:1,2015-02-03T18:29:00Z,27.7800,-90.5180,12.2,92.0,31.4,-99999.0,'1111122,1111122,1199999999' 
ADCP,ioos:station:wmo:42372:1,2015-02-03T19:29:00Z,27.7800,-90.5180,12.2,94.0,32.8,-99999.0,'1111122,1111122,1199999999' 
ADCP,ioos:station:wmo:42372:1,2015-02-03T20:29:00Z,27.7800,-90.5180,12.2,74.0,34.3,-99999.0,'1111122,1111122,1199999999' 
ADCP,ioos:station:wmo:42372:1,2015-02-03T21:29:00Z,27.7800,-90.5180,12.2,63.0,36.2,0.0,'1111122,1111122,1114422' 
ADCP,ioos:station:wmo:42372:1,2015-02-03T22:29:00Z,27.7800,-90.5180,12.2,53.0,40.5,0.0,'1111122,1111122,1114422' 
ADCP,ioos:station:wmo:42372:1,2015-02-03T23:29:00Z,27.7800,-90.5180,12.2,52.0,43.3,-99999.0,'1111122,1111122,1199999999' 
ADCP,ioos:station:wmo:42372:1,2015-02-04T00:29:00Z,27.7800,-90.5180,12.2,47.0,50.0,0.0,'1111122,1111122,1114422' 
ADCP,ioos:station:wmo:42372:1,2015-02-04T01:19:00Z,27.7800,-90.5180,12.2,51.0,49.6,0.0,'1111122,1111122,1114422' 
ADCP,ioos:station:wmo:42372:1,2015-02-04T02:29:00Z,27.7800,-90.5180,12.2,48.0,56.4,-99999.0,'1111122,1111122,1199999999' 
ADCP,ioos:station:wmo:42372:1,2015-02-04T03:29:00Z,27.7800,-90.5180,12.2,48.0,60.7,-99999.0,'1111122,1111122,1199999999' 
ADCP,ioos:station:wmo:42372:1,2015-02-04T04:29:00Z,27.7800,-90.5180,12.2,48.0,60.7,0.0,'1111122,1111122,1114422' 
ADCP,ioos:station:wmo:42372:1,2015-02-04T05:29:00Z,27.7800,-90.5180,12.1,46.0,59.1,0.0,'1111122,1111122,1114422' 
ADCP,ioos:station:wmo:42372:1,2015-02-04T06:29:00Z,27.7800,-90.5180,12.1,48.0,59.1,-99999.0,'1111122,1111122,1199999999' 
ADCP,ioos:station:wmo:42372:1,2015-02-04T07:29:00Z,27.7800,-90.5180,11.9,48.0,61.5,0.0,'1111122,1111122,1114422' 
ADCP,ioos:station:wmo:42372:1,2015-02-04T08:29:00Z,27.7800,-90.5180,11.9,53.0,62.7,0.0,'1111122,1111122,1114422' 
ADCP,ioos:station:wmo:42372:1,2015-02-04T10:29:00Z,27.7800,-90.5180,11.8,63.0,63.0,0.0,'1111122,1111122,1114422' 
ADCP,ioos:station:wmo:42372:1,2015-02-04T11:29:00Z,27.7800,-90.5180,11.8,67.0,64.7,-99999.0,'1111122,1111122,1199999999' 
ADCP,ioos:station:wmo:42372:1,2015-02-04T12:29:00Z,27.7800,-90.5180,11.8,73.0,60.4,0.0,'1111122,1111122,1114422' 
ADCP,ioos:station:wmo:42372:1,2015-02-04T13:29:00Z,27.7800,-90.5180,11.8,75.0,58.5,0.0,'1111122,1111122,1114422' 
ADCP,ioos:station:wmo:42372:1,2015-02-04T14:29:00Z,27.7800,-90.5180,11.8,74.0,53.6,0.0,'1111122,1111122,1114422' 
ADCP,ioos:station:wmo:42372:1,2015-02-04T15:19:00Z,27.7800,-90.5180,11.8,77.0,49.7,-99999.0,'1111122,1111122,1199999999' 
ADCP,ioos:station:wmo:42372:1,2015-02-04T16:29:00Z,27.7800,-90.5180,11.8,72.0,50.0,0.0,'1111122,1111122,1114422' 
ADCP,ioos:station:wmo:42372:1,2015-02-04T17:29:00Z,27.7800,-90.5180,11.9,69.0,46.9,-99999.0,'1111122,1111122,1199999999' 
ADCP,ioos:station:wmo:42372:1,2015-02-04T18:29:00Z,27.7800,-90.5180,12.1,72.0,40.0,-99999.0,'1111122,1111122,1199999999' 
ADCP,ioos:station:wmo:42372:1,2015-02-04T19:29:00Z,27.7800,-90.5180,11.9,67.0,33.1,0.0,'1111122,1111122,1114422' 
ADCP,ioos:station:wmo:42372:1,2015-02-04T20:29:00Z,27.7800,-90.5180,12.1,54.0,24.1,-99999.0,'1111122,1111122,1199999999' 
ADCP,ioos:station:wmo:42372:1,2015-02-04T21:29:00Z,27.7800,-90.5180,12.1,54.0,22.5,0.0,'1111122,1111122,1114422' 
ADCP,ioos:station:wmo:42372:1,2015-02-04T22:59:00Z,27.7800,-90.5180,12.1,47.0,24.1,0.0,'1111122,1111122,1114422' 
ADCP,ioos:station:wmo:42372:1,2015-02-05T00:29:00Z,27.7800,-90.5180,12.1,44.0,37.4,-99999.0,'1111122,1111122,1199999999' 
ADCP,ioos:station:wmo:42372:1,2015-02-05T01:29:00Z,27.7800,-90.5180,12.1,52.0,39.1,-99999.0,'1111122,1111122,1199999999' 
ADCP,ioos:station:wmo:42372:1,2015-02-05T02:29:00Z,27.7800,-90.5180,12.1,47.0,44.4,-99999.0,'1111122,1111122,1199999999' 
ADCP,ioos:station:wmo:42372:1,2015-02-05T03:29:00Z,27.7800,-90.5180,12.1,51.0,44.5,-99999.0,'1111122,1111122,1199999999' 
ADCP,ioos:station:wmo:42372:1,2015-02-05T04:29:00Z,27.7800,-90.5180,12.2,42.0,59.0,-99999.0,'1111122,1111122,1199999999' 
ADCP,ioos:station:wmo:42372:1,2015-02-05T05:29:00Z,27.7800,-90.5180,12.2,52.0,56.9,-99999.0,'1111122,1111122,1199999999' 
ADCP,ioos:station:wmo:42372:1,2015-02-05T06:29:00Z,27.7800,-90.5180,12.2,50.0,56.7,-99999.0,'1111122,1111122,1199999999' 
ADCP,ioos:station:wmo:42372:1,2015-02-05T07:29:00Z,27.7800,-90.5180,12.2,52.0,59.3,-99999.0,'1111122,1111122,1199999999' 
ADCP,ioos:station:wmo:42372:1,2015-02-05T09:29:00Z,27.7800,-90.5180,12.1,58.0,61.2,-99999.0,'1111122,1111122,1199999999' 
ADCP,ioos:station:wmo:42372:1,2015-02-05T10:29:00Z,27.7800,-90.5180,12.1,60.0,60.1,-99999.0,'1111122,1111122,1199999999' 
ADCP,ioos:station:wmo:42372:1,2015-02-05T11:29:00Z,27.7800,-90.5180,12.1,61.0,58.9,-99999.0,'1111122,1111122,1199999999' 
ADCP,ioos:station:wmo:42372:1,2015-02-05T12:29:00Z,27.7800,-90.5180,12.1,60.0,59.1,-99999.0,'1111122,1111122,1199999999' 
ADCP,ioos:station:wmo:42372:1,2015-02-05T13:29:00Z,27.7800,-90.5180,12.2,60.0,56.3,0.0,'1111122,1111122,1114422' 
ADCP,ioos:station:wmo:42372:1,2015-02-05T14:29:00Z,27.7800,-90.5180,12.2,62.0,54.0,0.0,'1111122,1111122,1114422' 
ADCP,ioos:station:wmo:42372:1,2015-02-05T15:19:00Z,27.7800,-90.5180,12.2,61.0,51.4,0.0,'1111122,1111122,1114422' 
ADCP,ioos:station:wmo:42372:1,2015-02-05T16:29:00Z,27.7800,-90.5180,12.2,56.0,47.5,0.0,'1111122,1111122,1114422' 
ADCP,ioos:station:wmo:42372:1,2015-02-05T17:29:00Z,27.7800,-90.5180,12.2,58.0,43.8,0.0,'1111122,1111122,1114422' 
ADCP,ioos:station:wmo:42372:1,2015-02-05T18:29:00Z,27.7800,-90.5180,12.2,56.0,46.0,0.0,'1111122,1111122,1114422' 
ADCP,ioos:station:wmo:42372:1,2015-02-05T19:29:00Z,27.7800,-90.5180,12.2,52.0,47.1,-99999.0,'1111122,1111122,1199999999' 
ADCP,ioos:station:wmo:42372:1,2015-02-05T20:09:00Z,27.7800,-90.5180,12.2,53.0,49.3,-99999.0,'1111122,1111122,1199999999' 
ADCP,ioos:station:wmo:42372:1,2015-02-05T21:29:00Z,27.7800,-90.5180,12.2,50.0,47.1,-99999.0,'1111122,1111122,1199999999' 
ADCP,ioos:station:wmo:42372:1,2015-02-05T22:09:00Z,27.7800,-90.5180,12.2,52.0,48.7,-99999.0,'1111122,1111122,1199999999' 
ADCP,ioos:station:wmo:42372:1,2015-02-06T00:29:00Z,27.7800,-90.5180,12.2,54.0,49.2,-99999.0,'1111122,1111122,1199999999' 
ADCP,ioos:station:wmo:42372:1,2015-02-06T01:19:00Z,27.7800,-90.5180,12.3,52.0,49.5,-99999.0,'1111122,1111122,1199999999' 
ADCP,ioos:station:wmo:42372:1,2015-02-06T02:29:00Z,27.7800,-90.5180,12.3,54.0,49.4,-99999.0,'1111122,1111122,1199999999' 
ADCP,ioos:station:wmo:42372:1,2015-02-06T03:29:00Z,27.7800,-90.5180,12.3,57.0,46.8,-99999.0,'1111122,1111122,1199999999' 
ADCP,ioos:station:wmo:42372:1,2015-02-06T04:29:00Z,27.7800,-90.5180,12.3,60.0,42.2,-99999.0,'1111122,1111122,1199999999' 
ADCP,ioos:station:wmo:42372:1,2015-02-06T05:29:00Z,27.7800,-90.5180,12.3,60.0,40.9,-99999.0,'1111122,1111122,1199999999' 
ADCP,ioos:station:wmo:42372:1,2015-02-06T06:29:00Z,27.7800,-90.5180,12.3,58.0,38.1,-99999.0,'1111122,1111122,1199999999' 
ADCP,ioos:station:wmo:42372:1,2015-02-06T07:29:00Z,27.7800,-90.5180,12.3,55.0,37.9,-99999.0,'1111122,1111122,1199999999' 
ADCP,ioos:station:wmo:42372:1,2015-02-06T08:29:00Z,27.7800,-90.5180,12.3,53.0,36.5,-99999.0,'1111122,1111122,1199999999' 
ADCP,ioos:station:wmo:42372:1,2015-02-06T09:29:00Z,27.7800,-90.5180,12.2,54.0,34.1,-99999.0,'1111122,1111122,1199999999' 
ADCP,ioos:station:wmo:42372:1,2015-02-06T10:29:00Z,27.7800,-90.5180,12.2,46.0,35.6,-99999.0,'1111122,1111122,1199999999' 
ADCP,ioos:station:wmo:42372:1,2015-02-06T11:09:00Z,27.7800,-90.5180,12.2,44.0,35.5,-99999.0,'1111122,1111122,1199999999' 
ADCP,ioos:station:wmo:42372:1,2015-02-09T19:44:00Z,27.7800,-90.5180,12.2,154.0,29.3,0.0,'1111122,1111122,1114422' 
ADCP,ioos:station:wmo:42372:1,2015-02-09T21:24:00Z,27.7800,-90.5180,12.2,151.0,27.1,0.0,'1111122,1111122,1114422' 
ADCP,ioos:station:wmo:42372:1,2015-02-09T22:24:00Z,27.7800,-90.5180,12.2,142.0,22.7,0.0,'1111122,1111122,1114422' 
ADCP,ioos:station:wmo:42372:1,2015-02-09T23:24:00Z,27.7800,-90.5180,12.2,109.0,23.3,0.0,'1111122,1111122,1114422' 
ADCP,ioos:station:wmo:42372:1,2015-02-10T00:24:00Z,27.7800,-90.5180,12.2,95.0,22.2,0.0,'1111122,1111122,1114422' 
ADCP,ioos:station:wmo:42372:1,2015-02-10T01:14:00Z,27.7800,-90.5180,12.2,80.0,21.9,-99999.0,'1111122,1111122,1199999999' 
ADCP,ioos:station:wmo:42372:1,2015-02-10T03:24:00Z,27.7800,-90.5180,12.4,72.0,24.9,-99999.0,'1111122,1111122,1199999999' 
ADCP,ioos:station:wmo:42372:1,2015-02-10T04:24:00Z,27.7800,-90.5180,12.7,65.0,26.0,-99999.0,'1111122,1111122,1199999999' 
ADCP,ioos:station:wmo:42372:1,2015-02-10T05:25:00Z,27.7800,-90.5180,34.0,67.0,12.2,-0.2,'1111122,1111122,1111122' 
ADCP,ioos:station:wmo:42372:1,2015-02-10T06:25:00Z,27.7800,-90.5180,34.2,63.0,9.5,-0.7,'1111122,1111122,1111122' 
ADCP,ioos:station:wmo:42372:1,2015-02-10T07:25:00Z,27.7800,-90.5180,34.4,59.0,10.8,-0.6,'1111122,1111122,1111122' 
ADCP,ioos:station:wmo:42372:1,2015-02-10T08:25:00Z,27.7800,-90.5180,34.4,83.0,11.8,0.0,'1111122,1111122,1114422' 
ADCP,ioos:station:wmo:42372:1,2015-02-10T09:25:00Z,27.7800,-90.5180,34.5,53.0,9.6,-0.9,'1111122,1111122,1111122' 
ADCP,ioos:station:wmo:42372:1,2015-02-10T11:25:00Z,27.7800,-90.5180,34.6,47.0,11.7,-0.8,'1111122,1111122,1111122' 
ADCP,ioos:station:wmo:42372:1,2015-02-10T12:25:00Z,27.7800,-90.5180,34.5,49.0,4.3,-0.3,'1111122,1111122,1111122' 
ADCP,ioos:station:wmo:42372:1,2015-02-10T13:25:00Z,27.7800,-90.5180,34.6,52.0,11.1,-0.6,'1111122,1111122,1111122' 
ADCP,ioos:station:wmo:42372:1,2015-02-10T15:15:00Z,27.7800,-90.5180,34.5,50.0,13.1,-1.5,'1111122,1111122,1111122' 
ADCP,ioos:station:wmo:42372:1,2015-02-10T16:15:00Z,27.7800,-90.5180,34.7,70.0,18.2,0.1,'1111122,1111122,1111122' 
ADCP,ioos:station:wmo:42372:1,2015-02-10T17:15:00Z,27.7800,-90.5180,34.6,68.0,18.5,0.8,'1111122,1111122,1111122' 
ADCP,ioos:station:wmo:42372:1,2015-02-10T19:25:00Z,27.7800,-90.5180,34.5,66.0,17.8,1.7,'1111122,1111122,1111122' 
ADCP,ioos:station:wmo:42372:1,2015-02-10T20:25:00Z,27.7800,-90.5180,34.6,64.0,15.5,1.4,'1111122,1111122,1111122' 
ADCP,ioos:station:wmo:42372:1,2015-02-10T21:25:00Z,27.7800,-90.5180,34.6,50.0,7.9,1.5,'1111122,1111122,1111122' 
ADCP,ioos:station:wmo:42372:1,2015-02-10T22:26:00Z,27.7800,-90.5180,34.7,53.0,11.3,-0.8,'1111122,1111122,1111122' 
ADCP,ioos:station:wmo:42372:1,2015-02-10T23:26:00Z,27.7800,-90.5180,34.7,48.0,5.7,-1.8,'1111122,1111122,1111122' 
ADCP,ioos:station:wmo:42372:1,2015-02-11T00:26:00Z,27.7800,-90.5180,34.8,78.0,20.0,1.0,'1111122,1111122,1111122' 
ADCP,ioos:station:wmo:42372:1,2015-02-11T01:16:00Z,27.7800,-90.5180,34.8,59.0,15.7,-0.6,'1111122,1111122,1111122' 
ADCP,ioos:station:wmo:42372:1,2015-02-11T02:26:00Z,27.7800,-90.5180,34.8,31.0,16.5,-3.9,'1111122,1111122,1111122' 
ADCP,ioos:station:wmo:42372:1,2015-02-11T03:26:00Z,27.7800,-90.5180,34.8,46.0,10.8,-2.7,'1111122,1111122,1111122' 
ADCP,ioos:station:wmo:42372:1,2015-02-11T04:26:00Z,27.7800,-90.5180,34.7,63.0,12.6,-1.5,'1111122,1111122,1111122' 
ADCP,ioos:station:wmo:42372:1,2015-02-11T06:26:00Z,27.7800,-90.5180,34.7,88.0,13.8,-0.5,'1111122,1111122,1111122' 
ADCP,ioos:station:wmo:42372:1,2015-02-11T07:26:00Z,27.7800,-90.5180,34.7,67.0,11.4,-1.5,'1111122,1111122,1111122' 
ADCP,ioos:station:wmo:42372:1,2015-02-11T08:26:00Z,27.7800,-90.5180,34.5,70.0,10.1,0.0,'1111122,1111122,1114422' 
ADCP,ioos:station:wmo:42372:1,2015-02-11T09:26:00Z,27.7800,-90.5180,34.8,71.0,8.0,-1.2,'1111122,1111122,1111122' 
ADCP,ioos:station:wmo:42372:1,2015-02-11T10:26:00Z,27.7800,-90.5180,34.8,62.0,8.1,-0.7,'1111122,1111122,1111122' 
ADCP,ioos:station:wmo:42372:1,2015-02-11T11:26:00Z,27.7800,-90.5180,34.7,22.0,7.2,-1.1,'1111122,1111122,1111122' 
ADCP,ioos:station:wmo:42372:1,2015-02-11T12:26:00Z,27.7800,-90.5180,34.8,50.0,10.6,-0.2,'1111122,1111122,1111122' 
ADCP,ioos:station:wmo:42372:1,2015-02-11T13:26:00Z,27.7800,-90.5180,34.7,44.0,12.0,-0.7,'1111122,1111122,1111122' 
ADCP,ioos:station:wmo:42372:1,2015-02-11T14:26:00Z,27.7800,-90.5180,34.8,57.0,13.8,-0.7,'1111122,1111122,1111122' 
ADCP,ioos:station:wmo:42372:1,2015-02-11T15:16:00Z,27.7800,-90.5180,34.9,56.0,13.0,-0.4,'1111122,1111122,1111122' 
ADCP,ioos:station:wmo:42372:1,2015-02-11T16:27:00Z,27.7800,-90.5180,34.8,44.0,11.2,-1.7,'1111122,1111122,1111122' 
ADCP,ioos:station:wmo:42372:1,2015-02-11T17:27:00Z,27.7800,-90.5180,34.9,78.0,13.4,0.1,'1111122,1111122,1111122' 
ADCP,ioos:station:wmo:42372:1,2015-02-11T18:27:00Z,27.7800,-90.5180,34.9,58.0,13.9,-0.8,'1111122,1111122,1111122' 
ADCP,ioos:station:wmo:42372:1,2015-02-11T19:27:00Z,27.7800,-90.5180,34.8,57.0,9.1,0.1,'1111122,1111122,1111122' 
ADCP,ioos:station:wmo:42372:1,2015-02-11T20:27:00Z,27.7800,-90.5180,34.8,64.0,10.0,-0.5,'1111122,1111122,1111122' 
ADCP,ioos:station:wmo:42372:1,2015-02-11T21:27:00Z,27.7800,-90.5180,34.9,58.0,11.5,-1.0,'1111122,1111122,1111122' 
ADCP,ioos:station:wmo:42372:1,2015-02-11T22:17:00Z,27.7800,-90.5180,34.7,66.0,9.1,-0.6,'1111122,1111122,1111122' 
ADCP,ioos:station:wmo:42372:1,2015-02-11T23:27:00Z,27.7800,-90.5180,35.0,69.0,10.4,-0.2,'1111122,1111122,1111122' 
ADCP,ioos:station:wmo:42372:1,2015-02-12T00:27:00Z,27.7800,-90.5180,34.7,66.0,11.1,0.6,'1111122,1111122,1111122' 
ADCP,ioos:station:wmo:42372:1,2015-02-12T01:27:00Z,27.7800,-90.5180,34.9,63.0,11.3,1.0,'1111122,1111122,1111122' 
ADCP,ioos:station:wmo:42372:1,2015-02-12T02:27:00Z,27.7800,-90.5180,34.8,57.0,13.0,-0.7,'1111122,1111122,1111122' 
ADCP,ioos:station:wmo:42372:1,2015-02-12T03:27:00Z,27.7800,-90.5180,34.6,68.0,13.3,0.1,'1111122,1111122,1111122' 
ADCP,ioos:station:wmo:42372:1,2015-02-12T04:27:00Z,27.7800,-90.5180,34.6,61.0,11.6,0.1,'1111122,1111122,1111122' 
ADCP,ioos:station:wmo:42372:1,2015-02-12T05:27:00Z,27.7800,-90.5180,34.7,58.0,11.7,0.1,'1111122,1111122,1111122' 
ADCP,ioos:station:wmo:42372:1,2015-02-12T06:27:00Z,27.7800,-90.5180,34.9,54.0,15.2,1.0,'1111122,1111122,1111122' 
ADCP,ioos:station:wmo:42372:1,2015-02-12T08:27:00Z,27.7800,-90.5180,34.4,72.0,15.1,0.8,'1111122,1111122,1111122' 
ADCP,ioos:station:wmo:42372:1,2015-02-12T09:28:00Z,27.7800,-90.5180,34.5,70.0,11.7,0.5,'1111122,1111122,1111122' 
ADCP,ioos:station:wmo:42372:1,2015-02-12T10:28:00Z,27.7800,-90.5180,34.3,56.0,7.7,-0.5,'1111122,1111122,1111122' 
ADCP,ioos:station:wmo:42372:1,2015-02-12T11:28:00Z,27.7800,-90.5180,34.4,57.0,10.8,0.3,'1111122,1111122,1111122' 
ADCP,ioos:station:wmo:42372:1,2015-02-12T12:28:00Z,27.7800,-90.5180,34.5,49.0,7.4,-0.4,'1111122,1111122,1111122' 
ADCP,ioos:station:wmo:42372:1,2015-02-12T13:28:00Z,27.7800,-90.5180,34.6,148.0,1.3,0.2,'1111122,1111122,1111122' 
ADCP,ioos:station:wmo:42372:1,2015-02-12T14:28:00Z,27.7800,-90.5180,34.6,31.0,6.3,-1.7,'1111122,1111122,1111122' 
ADCP,ioos:station:wmo:42372:1,2015-02-12T15:18:00Z,27.7800,-90.5180,34.6,28.0,10.2,-0.9,'1111122,1111122,1111122' 
ADCP,ioos:station:wmo:42372:1,2015-02-12T16:18:00Z,27.7800,-90.5180,34.6,28.0,10.5,-2.8,'1111122,1111122,1111122' 
ADCP,ioos:station:wmo:42372:1,2015-02-12T17:28:00Z,27.7800,-90.5180,34.4,33.0,10.3,-1.8,'1111122,1111122,1111122' 
ADCP,ioos:station:wmo:42372:1,2015-02-12T18:18:00Z,27.7800,-90.5180,34.6,27.0,8.9,-1.9,'1111122,1111122,1111122' 
ADCP,ioos:station:wmo:42372:1,2015-02-12T19:28:00Z,27.7800,-90.5180,34.5,58.0,5.4,0.1,'1111122,1111122,1111122' 
ADCP,ioos:station:wmo:42372:1,2015-02-12T20:28:00Z,27.7800,-90.5180,34.5,34.0,9.4,-0.8,'1111122,1111122,1111122' 
ADCP,ioos:station:wmo:42372:1,2015-02-12T21:28:00Z,27.7800,-90.5180,34.4,38.0,7.3,-0.3,'1111122,1111122,1111122' 
ADCP,ioos:station:wmo:42372:1,2015-02-12T22:18:00Z,27.7800,-90.5180,34.6,354.0,6.5,-2.1,'1111122,1111122,1111122' 
ADCP,ioos:station:wmo:42372:1,2015-02-13T00:18:00Z,27.7800,-90.5180,34.6,35.0,11.7,-0.4,'1111122,1111122,1111122' 
ADCP,ioos:station:wmo:42372:1,2015-02-13T01:18:00Z,27.7800,-90.5180,34.4,21.0,13.5,-2.4,'1111122,1111122,1111122' 
ADCP,ioos:station:wmo:42372:1,2015-02-13T02:28:00Z,27.7800,-90.5180,34.4,19.0,14.6,-3.1,'1111122,1111122,1111122' 
ADCP,ioos:station:wmo:42372:1,2015-02-13T03:19:00Z,27.7800,-90.5180,34.4,20.0,15.2,-1.9,'1111122,1111122,1111122' 
ADCP,ioos:station:wmo:42372:1,2015-02-13T04:29:00Z,27.7800,-90.5180,34.3,31.0,19.2,-3.3,'1111122,1111122,1111122' 
ADCP,ioos:station:wmo:42372:1,2015-02-13T05:29:00Z,27.7800,-90.5180,34.2,48.0,27.8,-3.4,'1111122,1111122,1111122' 
ADCP,ioos:station:wmo:42372:1,2015-02-13T06:29:00Z,27.7800,-90.5180,34.4,50.0,28.9,-5.1,'1111122,1111122,1111122' 
ADCP,ioos:station:wmo:42372:1,2015-02-13T07:29:00Z,27.7800,-90.5180,34.3,51.0,33.7,-4.1,'1111122,1111122,1111122' 
ADCP,ioos:station:wmo:42372:1,2015-02-13T08:29:00Z,27.7800,-90.5180,34.2,52.0,32.9,-3.0,'1111122,1111122,1111122' 
ADCP,ioos:station:wmo:42372:1,2015-02-13T09:29:00Z,27.7800,-90.5180,34.4,55.0,37.3,-2.2,'1111122,1111122,1111122' 
ADCP,ioos:station:wmo:42372:1,2015-02-13T10:29:00Z,27.7800,-90.5180,34.3,58.0,42.6,-2.3,'1111122,1111122,1111122' 